SEH7RG LGIR-LGKO

Flight info

Callsign SEH7RG
Flight time 0h 29m
Altitude 15000
Route LABUX L41 GILOS
Aircraft A21N/M-SDE2E3FGHIRWXY/LB1

Departure

Time 2026-05-08 19:28
Airport Heraklion International Nikos Kazantzakis Airport (LGIR)

Arrival

Time 2026-05-08 19:58
Airport Kos International Airport "Ippokratis" (LGKO)
Time Latitude Longitude Altitude Speed Heading
2026-05-08 18:46 35.33812 25.17540 108 ft 0 kts 316°
2026-05-08 19:21 35.33816 25.17535 98 ft 2 kts 316°
2026-05-08 19:22 35.33836 25.17512 97 ft 6 kts 317°
2026-05-08 19:22 35.33888 25.17505 97 ft 9 kts 19°
2026-05-08 19:22 35.33907 25.17585 97 ft 12 kts 95°
2026-05-08 19:22 35.33900 25.17696 97 ft 14 kts 91°
2026-05-08 19:23 35.33892 25.17825 97 ft 16 kts 93°
2026-05-08 19:23 35.33886 25.17970 100 ft 18 kts 93°
2026-05-08 19:23 35.33878 25.18129 98 ft 20 kts 95°
2026-05-08 19:23 35.33863 25.18286 98 ft 17 kts 99°
2026-05-08 19:24 35.33846 25.18437 96 ft 19 kts 96°
2026-05-08 19:24 35.33836 25.18566 96 ft 13 kts 91°
2026-05-08 19:24 35.33833 25.18683 95 ft 15 kts 93°
2026-05-08 19:24 35.33822 25.18791 97 ft 11 kts 97°
2026-05-08 19:25 35.33817 25.18859 95 ft 4 kts 93°
2026-05-08 19:25 35.33816 25.18894 95 ft 5 kts 92°
2026-05-08 19:25 35.33827 25.18945 96 ft 8 kts 71°
2026-05-08 19:25 35.33834 25.18961 96 ft 0 kts 59°
2026-05-08 19:26 35.33836 25.18964 95 ft 1 kts 59°
2026-05-08 19:26 35.33844 25.18980 97 ft 3 kts 59°
2026-05-08 19:26 35.33860 25.19011 94 ft 5 kts 57°
2026-05-08 19:26 35.33893 25.19050 95 ft 8 kts
2026-05-08 19:27 35.33908 25.19000 94 ft 0 kts 270°
2026-05-08 19:27 35.33909 25.18976 94 ft 13 kts 274°
2026-05-08 19:28 35.33944 25.18450 98 ft 114 kts 274°
2026-05-08 19:28 35.34042 25.17123 224 ft 184 kts 274°
2026-05-08 19:28 35.34202 25.15546 1193 ft 191 kts 280°
2026-05-08 19:28 35.34954 25.14129 2131 ft 217 kts 321°
2026-05-08 19:29 35.36463 25.13559 2741 ft 248 kts
2026-05-08 19:29 35.38113 25.14305 3329 ft 264 kts 41°
2026-05-08 19:29 35.39151 25.16190 3959 ft 275 kts 75°
2026-05-08 19:29 35.39237 25.18524 4784 ft 277 kts 102°
2026-05-08 19:30 35.38480 25.20712 5431 ft 281 kts 128°
2026-05-08 19:30 35.37256 25.22592 6265 ft 285 kts 128°
2026-05-08 19:30 35.36392 25.24763 7264 ft 285 kts 102°
2026-05-08 19:30 35.36423 25.27244 7857 ft 301 kts 71°
2026-05-08 19:31 35.37408 25.29492 8682 ft 300 kts 49°
2026-05-08 19:31 35.38631 25.31580 9675 ft 306 kts 51°
2026-05-08 19:31 35.39709 25.33880 10356 ft 322 kts 59°
2026-05-08 19:31 35.40722 25.36451 10744 ft 347 kts 61°
2026-05-08 19:32 35.41754 25.39249 11086 ft 371 kts 62°
2026-05-08 19:32 35.42803 25.42228 11597 ft 386 kts 63°
2026-05-08 19:32 35.43888 25.45280 12376 ft 392 kts 62°
2026-05-08 19:32 35.44977 25.48330 13225 ft 396 kts 62°
2026-05-08 19:33 35.46084 25.51450 14053 ft 400 kts 62°
2026-05-08 19:33 35.47198 25.54606 14669 ft 406 kts 63°
2026-05-08 19:33 35.48406 25.57739 14982 ft 404 kts 54°
2026-05-08 19:33 35.50163 25.60360 15086 ft 391 kts 37°
2026-05-08 19:34 35.52239 25.62509 15125 ft 387 kts 33°
2026-05-08 19:34 35.54327 25.64596 15126 ft 387 kts 34°
2026-05-08 19:34 35.56382 25.66680 15117 ft 388 kts 34°
2026-05-08 19:34 35.58450 25.68812 15116 ft 388 kts 35°
2026-05-08 19:35 35.60517 25.70969 15108 ft 388 kts 35°
2026-05-08 19:35 35.62578 25.73131 15169 ft 388 kts 35°
2026-05-08 19:35 35.64635 25.75296 15758 ft 390 kts 36°
2026-05-08 19:35 35.66702 25.77470 16470 ft 391 kts 36°
2026-05-08 19:36 35.68753 25.79630 16917 ft 392 kts 36°
2026-05-08 19:36 35.70823 25.81812 17212 ft 391 kts 36°
2026-05-08 19:36 35.72896 25.83997 17854 ft 393 kts 36°
2026-05-08 19:36 35.74981 25.86197 18559 ft 394 kts 36°
2026-05-08 19:37 35.77081 25.88413 18939 ft 398 kts 36°
2026-05-08 19:37 35.79189 25.90640 19083 ft 399 kts 36°
2026-05-08 19:37 35.81298 25.92870 19120 ft 399 kts 36°
2026-05-08 19:37 35.83386 25.95079 19122 ft 399 kts 36°
2026-05-08 19:38 35.85489 25.97310 19117 ft 399 kts 36°
2026-05-08 19:38 35.87595 25.99546 19114 ft 399 kts 36°
2026-05-08 19:38 35.89698 26.01780 19114 ft 399 kts 36°
2026-05-08 19:38 35.91813 26.04030 19113 ft 399 kts 36°
2026-05-08 19:39 35.93897 26.06237 19121 ft 399 kts 36°
2026-05-08 19:39 35.96009 26.08477 19117 ft 399 kts 36°
2026-05-08 19:39 35.98124 26.10725 19115 ft 399 kts 36°
2026-05-08 19:39 36.00225 26.12959 19118 ft 412 kts 36°
2026-05-08 19:40 36.02454 26.15327 19129 ft 432 kts 37°
2026-05-08 19:40 36.04782 26.17812 19133 ft 451 kts 37°
2026-05-08 19:40 36.07211 26.20408 19133 ft 467 kts 37°
2026-05-08 19:40 36.09673 26.23036 19132 ft 476 kts 37°
2026-05-08 19:41 36.12186 26.25722 19134 ft 475 kts 37°
2026-05-08 19:41 36.14682 26.28393 19127 ft 474 kts 37°
2026-05-08 19:41 36.17187 26.31077 19112 ft 474 kts 37°
2026-05-08 19:41 36.19636 26.33701 18557 ft 467 kts 37°
2026-05-08 19:42 36.22100 26.36344 17625 ft 467 kts 37°
2026-05-08 19:42 36.24526 26.38951 17195 ft 451 kts 37°
2026-05-08 19:42 36.26848 26.41451 16875 ft 434 kts 37°
2026-05-08 19:42 36.29092 26.43867 16563 ft 418 kts 37°
2026-05-08 19:43 36.31224 26.46166 16261 ft 404 kts 37°
2026-05-08 19:43 36.33335 26.48440 15675 ft 398 kts 37°
2026-05-08 19:43 36.35428 26.50689 14989 ft 396 kts 37°
2026-05-08 19:43 36.37481 26.52900 14394 ft 393 kts 37°
2026-05-08 19:44 36.39539 26.55119 13771 ft 390 kts 37°
2026-05-08 19:44 36.41581 26.57323 13190 ft 384 kts 36°
2026-05-08 19:44 36.43576 26.59480 12684 ft 377 kts 36°
2026-05-08 19:44 36.45513 26.61577 12208 ft 370 kts 36°
2026-05-08 19:45 36.47440 26.63663 11738 ft 364 kts 36°
2026-05-08 19:45 36.49339 26.65730 11292 ft 359 kts 36°
2026-05-08 19:45 36.51206 26.67760 10931 ft 351 kts 35°
2026-05-08 19:45 36.52996 26.69699 10713 ft 340 kts 35°
2026-05-08 19:46 36.54747 26.71599 10548 ft 327 kts 35°
2026-05-08 19:46 36.56430 26.73432 10403 ft 315 kts 35°
2026-05-08 19:46 36.59660 26.76938 9777 ft 305 kts 34°
2026-05-08 19:47 36.61264 26.78674 9352 ft 304 kts 35°
2026-05-08 19:47 36.62830 26.80374 8997 ft 301 kts 35°
2026-05-08 19:47 36.64403 26.82085 8629 ft 298 kts 36°
2026-05-08 19:47 36.65959 26.83780 8259 ft 296 kts 36°
2026-05-08 19:48 36.67503 26.85463 7904 ft 293 kts 37°
2026-05-08 19:48 36.69139 26.86918 7585 ft 285 kts 20°
2026-05-08 19:48 36.70999 26.87426 7271 ft 275 kts 355°
2026-05-08 19:48 36.72891 26.87209 6977 ft 272 kts 349°
2026-05-08 19:49 36.74763 26.86896 6705 ft 268 kts 349°
2026-05-08 19:49 36.76583 26.86605 6552 ft 258 kts 349°
2026-05-08 19:49 36.78333 26.86334 6359 ft 250 kts 349°
2026-05-08 19:49 36.80056 26.86075 6024 ft 248 kts 350°
2026-05-08 19:50 36.81786 26.85819 5700 ft 251 kts 350°
2026-05-08 19:50 36.83505 26.85568 5521 ft 252 kts 351°
2026-05-08 19:50 36.85252 26.85315 5521 ft 252 kts 350°
2026-05-08 19:50 36.86997 26.85064 5565 ft 252 kts 350°
2026-05-08 19:51 36.88745 26.84813 5532 ft 250 kts 351°
2026-05-08 19:51 36.90444 26.84650 5550 ft 244 kts
2026-05-08 19:51 36.92073 26.85234 5344 ft 248 kts 31°
2026-05-08 19:51 36.93227 26.86793 5045 ft 251 kts 59°
2026-05-08 19:52 36.94074 26.88699 4711 ft 250 kts 61°
2026-05-08 19:52 36.94933 26.90587 4413 ft 248 kts 60°
2026-05-08 19:52 36.95792 26.92445 4156 ft 243 kts 66°
2026-05-08 19:52 36.96119 26.93755 3983 ft 237 kts 85°
2026-05-08 19:53 36.95652 26.96296 3585 ft 224 kts 127°
2026-05-08 19:53 36.94541 26.97570 3410 ft 212 kts 149°
2026-05-08 19:53 36.93705 26.98175 3324 ft 205 kts 152°
2026-05-08 19:53 36.92099 26.99317 3047 ft 198 kts 150°
2026-05-08 19:54 36.91305 26.99905 2971 ft 189 kts 150°
2026-05-08 19:54 36.90219 27.00721 2893 ft 182 kts 149°
2026-05-08 19:54 36.89143 27.01553 2641 ft 179 kts 149°
2026-05-08 19:54 36.88090 27.02372 2347 ft 176 kts 149°
2026-05-08 19:55 36.87070 27.03166 2067 ft 168 kts 149°
2026-05-08 19:55 36.86117 27.03909 1824 ft 158 kts 149°
2026-05-08 19:55 36.85214 27.04613 1606 ft 150 kts 149°
2026-05-08 19:55 36.84353 27.05285 1409 ft 136 kts 149°
2026-05-08 19:56 36.83564 27.05902 1191 ft 133 kts 148°
2026-05-08 19:56 36.82781 27.06521 968 ft 133 kts 148°
2026-05-08 19:56 36.82011 27.07131 752 ft 133 kts 148°
2026-05-08 19:56 36.81223 27.07734 640 ft 132 kts 147°
2026-05-08 19:57 36.80452 27.08344 471 ft 130 kts 147°
2026-05-08 19:57 36.79739 27.08898 423 ft 96 kts 149°
2026-05-08 19:57 36.79373 27.09181 417 ft 50 kts 149°
2026-05-08 19:57 36.79078 27.09411 405 ft 50 kts 147°
2026-05-08 19:58 36.78793 27.09624 399 ft 42 kts 141°
2026-05-08 19:58 36.78611 27.09775 394 ft 14 kts 162°
2026-05-08 19:58 36.78572 27.09802 393 ft 5 kts 42°
2026-05-08 19:58 36.78614 27.09776 394 ft 10 kts 323°
2026-05-08 19:59 36.78707 27.09700 396 ft 22 kts 328°
2026-05-08 19:59 36.78840 27.09595 401 ft 24 kts 328°
2026-05-08 19:59 36.78986 27.09480 402 ft 26 kts 328°
2026-05-08 19:59 36.79143 27.09356 409 ft 28 kts 328°
2026-05-08 20:00 36.79318 27.09221 416 ft 31 kts 328°
2026-05-08 20:00 36.79508 27.09076 423 ft 33 kts 328°
2026-05-08 20:00 36.79640 27.08991 424 ft 12 kts 350°
2026-05-08 20:00 36.79730 27.08985 415 ft 14 kts 359°
2026-05-08 20:01 36.79808 27.08983 421 ft 10 kts 359°
2026-05-08 20:01 36.79882 27.08982 419 ft 12 kts 359°
2026-05-08 20:01 36.79960 27.08959 419 ft 11 kts 330°
2026-05-08 20:01 36.80032 27.08908 423 ft 13 kts 329°
2026-05-08 20:02 36.80108 27.08850 417 ft 5 kts 323°
2026-05-08 20:02 36.80129 27.08833 424 ft 2 kts 337°
2026-05-08 20:02 36.80150 27.08844 424 ft 4 kts 45°
2026-05-08 20:02 36.80171 27.08880 424 ft 3 kts 57°
2026-05-08 20:03 36.80176 27.08893 422 ft 2 kts 59°
2026-05-08 20:03 36.80179 27.08898 422 ft 1 kts 58°
2026-05-08 20:03 36.80180 27.08899 422 ft 0 kts 58°